Вернуться в каталог

HULIANWANG DIGUI-167

АктивенСвязьPO
NORAD 68659·PAYLOAD·🇨🇳 China

Запущен Apr 8, 2026 с Taiyuan Satellite Launch Center

Loading…

Ближайшие Пролёты (ближайшие 24 часа)

TLE

СвежийSource: Space-Track

Эпоха: Sep 14, 2026, 13:16 UTC

1 68659U 26076D   26257.55312613  .00000007  00000-0 -16899-4 0  9998
2 68659  86.5043  13.7147 0001293 108.7428 251.3847 13.24410207 21209

Отслеживайте HULIANWANG DIGUI-167 в реальном времени с AllMySat

Download on the App Store